Stündliche Wetter Holovativka

Heute, 22 Juni, Dienstag

Zeit Temperatur Niederschläge Wind Luftdruck Luftfeuchtigkeit
00:00 +21°C° 0 mm 3 m/S 749 mmHg 80%
01:00 +20°C° 0 mm 3 m/S 749 mmHg 81%
02:00 +20°C° 0 mm 3 m/S 749 mmHg 82%
03:00 +20°C° 0 mm 3 m/S 749 mmHg 82%
04:00 +19°C° 0 mm 3 m/S 749 mmHg 82%
05:00 +19°C° 0 mm 3 m/S 749 mmHg 82%
06:00 +21°C° 0 mm 3 m/S 749 mmHg 79%
07:00 +22°C° 0 mm 4 m/S 750 mmHg 76%
08:00 +25°C° 0 mm 4 m/S 750 mmHg 70%
09:00 +26°C° 0 mm 5 m/S 750 mmHg 65%
10:00 +27°C° 0 mm 6 m/S 750 mmHg 60%
11:00 +28°C° 0 mm 6 m/S 750 mmHg 54%
12:00 +29°C° 0 mm 6 m/S 750 mmHg 54%
13:00 +29°C° 0 mm 6 m/S 750 mmHg 53%
14:00 +30°C° 0 mm 6 m/S 750 mmHg 53%
15:00 +30°C° 0 mm 5 m/S 750 mmHg 56%
16:00 +29°C° 0 mm 5 m/S 750 mmHg 59%
17:00 +29°C° 0 mm 5 m/S 750 mmHg 62%
18:00 +27°C° 0 mm 4 m/S 750 mmHg 68%
19:00 +26°C° 0 mm 4 m/S 750 mmHg 74%
20:00 +23°C° 0 mm 4 m/S 750 mmHg 80%
21:00 +22°C° 0 mm 3 m/S 750 mmHg 81%
22:00 +22°C° 0 mm 3 m/S 750 mmHg 83%
23:00 +21°C° 0 mm 3 m/S 750 mmHg 84%

Morgen, 23 Juni, Mittwoch

Zeit Temperatur Niederschläge Wind Luftdruck Luftfeuchtigkeit
00:00 +21°C° 0 mm 3 m/S 750 mmHg 83%
01:00 +21°C° 0 mm 3 m/S 750 mmHg 83%
02:00 +21°C° 0 mm 3 m/S 750 mmHg 82%
03:00 +21°C° 0 mm 3 m/S 750 mmHg 84%
04:00 +21°C° 0 mm 3 m/S 750 mmHg 86%
05:00 +21°C° 0 mm 3 m/S 750 mmHg 87%
06:00 +22°C° 0 mm 3 m/S 750 mmHg 83%
07:00 +25°C° 0 mm 4 m/S 750 mmHg 78%
08:00 +26°C° 0 mm 4 m/S 750 mmHg 73%
09:00 +27°C° 0 mm 4 m/S 750 mmHg 71%
10:00 +28°C° 0 mm 4 m/S 750 mmHg 68%
11:00 +28°C° 0 mm 5 m/S 750 mmHg 65%
12:00 +29°C° 0 mm 4 m/S 750 mmHg 63%
13:00 +30°C° 0 mm 4 m/S 751 mmHg 61%
14:00 +31°C° 0 mm 3 m/S 751 mmHg 59%
15:00 +31°C° 0.1 mm 3 m/S 751 mmHg 61%
16:00 +31°C° 0.1 mm 3 m/S 751 mmHg 63%
17:00 +31°C° 0.1 mm 3 m/S 751 mmHg 65%
18:00 +29°C° 0 mm 3 m/S 751 mmHg 71%
19:00 +28°C° 0 mm 3 m/S 751 mmHg 77%
20:00 +26°C° 0 mm 3 m/S 751 mmHg 83%
21:00 +25°C° 0.1 mm 2 m/S 751 mmHg 84%
22:00 +25°C° 0.1 mm 2 m/S 751 mmHg 86%
23:00 +24°C° 0.1 mm 2 m/S 751 mmHg 88%

übermorgen, 24 Juni, Donnerstag

Zeit Temperatur Niederschläge Wind Luftdruck Luftfeuchtigkeit
00:00 +24°C° 0.5 mm 2 m/S 752 mmHg 88%
01:00 +23°C° 0.5 mm 2 m/S 752 mmHg 88%
02:00 +23°C° 0.5 mm 2 m/S 752 mmHg 88%
03:00 +23°C° 0 mm 2 m/S 752 mmHg 88%
04:00 +23°C° 0 mm 2 m/S 752 mmHg 89%
05:00 +22°C° 0 mm 3 m/S 752 mmHg 89%
06:00 +25°C° 0 mm 3 m/S 752 mmHg 84%
07:00 +26°C° 0 mm 3 m/S 752 mmHg 78%
08:00 +28°C° 0 mm 4 m/S 752 mmHg 73%
09:00 +29°C° 0 mm 4 m/S 752 mmHg 68%
10:00 +30°C° 0 mm 4 m/S 752 mmHg 62%
11:00 +33°C° 0 mm 4 m/S 751 mmHg 57%
12:00 +33°C° 0 mm 4 m/S 751 mmHg 54%
13:00 +34°C° 0 mm 4 m/S 751 mmHg 52%
14:00 +34°C° 0 mm 4 m/S 751 mmHg 50%
15:00 +33°C° 0 mm 4 m/S 751 mmHg 54%
16:00 +33°C° 0 mm 4 m/S 751 mmHg 58%
17:00 +32°C° 0 mm 4 m/S 751 mmHg 62%
18:00 +29°C° 0 mm 3 m/S 751 mmHg 68%
19:00 +27°C° 0 mm 3 m/S 751 mmHg 74%
20:00 +26°C° 0 mm 3 m/S 751 mmHg 79%
21:00 +25°C° 0 mm 3 m/S 751 mmHg 80%
22:00 +24°C° 0 mm 2 m/S 751 mmHg 81%
23:00 +24°C° 0 mm 2 m/S 751 mmHg 82%

25 Juni, Freitag

Zeit Temperatur Niederschläge Wind Luftdruck Luftfeuchtigkeit
00:00 +23°C° 0.2 mm 2 m/S 751 mmHg 84%
01:00 +23°C° 0.2 mm 2 m/S 751 mmHg 87%
02:00 +23°C° 0.2 mm 1 m/S 751 mmHg 89%
03:00 +23°C° 0 mm 2 m/S 751 mmHg 89%
04:00 +23°C° 0 mm 2 m/S 751 mmHg 88%
05:00 +22°C° 0 mm 3 m/S 751 mmHg 88%
06:00 +24°C° 0 mm 3 m/S 751 mmHg 80%
07:00 +26°C° 0 mm 3 m/S 751 mmHg 73%
08:00 +28°C° 0 mm 3 m/S 751 mmHg 66%
09:00 +29°C° 0 mm 3 m/S 751 mmHg 63%
10:00 +30°C° 0 mm 2 m/S 751 mmHg 59%
11:00 +32°C° 0 mm 2 m/S 751 mmHg 56%
12:00 +34°C° 0 mm 2 m/S 751 mmHg 53%
13:00 +34°C° 0 mm 2 m/S 751 mmHg 50%
14:00 +35°C° 0 mm 2 m/S 751 mmHg 47%
15:00 +34°C° 0.1 mm 3 m/S 750 mmHg 52%
16:00 +34°C° 0.1 mm 3 m/S 750 mmHg 57%
17:00 +33°C° 0.1 mm 3 m/S 750 mmHg 62%
18:00 +31°C° 0.1 mm 3 m/S 750 mmHg 67%
19:00 +29°C° 0.1 mm 3 m/S 749 mmHg 73%
20:00 +27°C° 0.1 mm 3 m/S 749 mmHg 78%
21:00 +26°C° 0 mm 2 m/S 749 mmHg 81%
22:00 +26°C° 0 mm 2 m/S 749 mmHg 84%
23:00 +25°C° 0 mm 2 m/S 749 mmHg 86%

26 Juni, Samstag

Zeit Temperatur Niederschläge Wind Luftdruck Luftfeuchtigkeit
00:00 +24°C° 0.3 mm 2 m/S 749 mmHg 87%
01:00 +24°C° 0.3 mm 2 m/S 749 mmHg 89%
02:00 +23°C° 0.3 mm 2 m/S 749 mmHg 90%
03:00 +23°C° 0 mm 2 m/S 749 mmHg 89%
04:00 +24°C° 0 mm 2 m/S 749 mmHg 89%
05:00 +24°C° 0 mm 2 m/S 749 mmHg 89%
06:00 +25°C° 0 mm 2 m/S 749 mmHg 83%
07:00 +27°C° 0 mm 2 m/S 749 mmHg 78%
08:00 +28°C° 0 mm 2 m/S 749 mmHg 72%
09:00 +30°C° 0.1 mm 2 m/S 749 mmHg 67%
10:00 +31°C° 0.1 mm 2 m/S 749 mmHg 62%
11:00 +32°C° 0.1 mm 2 m/S 749 mmHg 57%
12:00 +32°C° 0 mm 2 m/S 749 mmHg 54%
13:00 +32°C° 0 mm 2 m/S 749 mmHg 52%
14:00 +34°C° 0 mm 2 m/S 749 mmHg 50%
15:00 +34°C° 0 mm 2 m/S 749 mmHg 51%
16:00 +34°C° 0 mm 2 m/S 748 mmHg 53%
17:00 +32°C° 0 mm 2 m/S 748 mmHg 54%
18:00 +29°C° 0.9 mm 3 m/S 748 mmHg 67%
19:00 +25°C° 0.9 mm 4 m/S 748 mmHg 79%
20:00 +21°C° 0.9 mm 4 m/S 748 mmHg 91%
21:00 +20°C° 1.3 mm 4 m/S 748 mmHg 93%
22:00 +20°C° 1.3 mm 4 m/S 749 mmHg 94%
23:00 +20°C° 1.3 mm 3 m/S 749 mmHg 96%

27 Juni, Sonntag

Zeit Temperatur Niederschläge Wind Luftdruck Luftfeuchtigkeit
00:00 +19°C° 0 mm 3 m/S 748 mmHg 96%
01:00 +19°C° 0 mm 2 m/S 748 mmHg 96%
02:00 +19°C° 0 mm 2 m/S 748 mmHg 96%
03:00 +19°C° 0 mm 2 m/S 748 mmHg 95%
04:00 +19°C° 0 mm 3 m/S 748 mmHg 95%
05:00 +19°C° 0 mm 3 m/S 748 mmHg 95%
06:00 +20°C° 0 mm 3 m/S 748 mmHg 92%
07:00 +21°C° 0 mm 3 m/S 748 mmHg 89%
08:00 +22°C° 0 mm 4 m/S 748 mmHg 86%
09:00 +22°C° 0.1 mm 3 m/S 749 mmHg 86%
10:00 +22°C° 0.1 mm 3 m/S 749 mmHg 86%
11:00 +22°C° 0.1 mm 3 m/S 749 mmHg 86%
12:00 +24°C° 0.1 mm 3 m/S 749 mmHg 84%
13:00 +25°C° 0.1 mm 4 m/S 749 mmHg 81%
14:00 +25°C° 0.1 mm 4 m/S 749 mmHg 79%
15:00 +26°C° 0.2 mm 4 m/S 749 mmHg 77%
16:00 +26°C° 0.2 mm 4 m/S 749 mmHg 76%
17:00 +26°C° 0.2 mm 4 m/S 748 mmHg 74%
18:00 +25°C° 0.3 mm 4 m/S 748 mmHg 80%
19:00 +24°C° 0.3 mm 3 m/S 748 mmHg 86%
20:00 +21°C° 0.3 mm 2 m/S 748 mmHg 92%
21:00 +21°C° 0 mm 2 m/S 748 mmHg 94%
22:00 +20°C° 0 mm 2 m/S 749 mmHg 95%
23:00 +20°C° 0 mm 2 m/S 749 mmHg 96%
Mehr zeigen

Wir brauchen deine Erlaubnis

Meteoprog und unser Service Anbieter werden persönliche Daten aufbewahren, so wie Cookies, Geräte Bezeichnung oder ähnliche Technologien von deinem Gerät und Prozess, so wie Persönliche Daten Inhalte und Werbungen, genauso wie social Media und den Verkehr zu analysieren.

  • Aufbewahrung und/oder Zugang zu deiner Geräte Informationen.

    Cookies, Geräte Bezeichnung oder andere Informationen, können aufbewahrt oder Zugang zu deinem Gerät erhalten, für den Grund, der oben angegeben wird.

  • Personalisierte Werbung und Inhalte, Messungen, Einblick in das Publikum und Produkt Entwicklung.

    Werbungen und Inhalte können personalisiert werden, basierend auf ein Profil. Mehr Daten können besser personalisierte Werbungen und Inhalte hinzufügen. Werbung und Inhalte können gezeigt und gemessen werden. Einblicke über das Publikum, welche die Werbung gesehen haben und den Inhalt, können abgeleitet werden. So wie Daten können genutzt werden, um es zu verbessern oder die Benutzer Erfahrung zu verbessern das System und die Software.

Wenn du “Ich stimme zu” klickst, erlaubst du uns, die Cookies zu benutzen die Geräte Bezeichnung, den Web oder ähnliche Technologien zu benutzen. Deine Settings, können in deinem Gerät bei deinem Browser geändert werden.

Für den bestimmten Zweck, berechtigten Interessen beruhen darauf, mehr als auf den Inhalt. Du kannst mehr darüber in unseren Privaten und Cookie Politik lesen.